Zurück zum Katalog

STARLINK-33819

AktivKommunikationVLEO
NORAD 63494·PAYLOAD·🇺🇸 United States

Gestartet Apr 7, 2025 von Vandenberg Space Force Base

Loading…

Nächste Überflüge (nächste 24 Stunden)

TLE

AktuellSource: CelesTrak SupGP

Epoche: Sep 15, 2026, 03:50 UTC

1 63494C 25071B   26258.16020833  .00051807  00000+0  15330-2 0  2589
2 63494  53.1597 334.9758 0001305 101.9958  33.2195 15.34316825    11

Verfolge STARLINK-33819 in Echtzeit mit AllMySat

Download on the App Store